EW0908 Khalkis GR current weather conditions

sailwx.info

Wind from 240 at 0 knots gusting 4

Air temperature 12.2° C
Dewpoint 10.6° C

Last reported at 2019-Dec-15 21:03 UTC.
Time now 2019-Dec-15 21:50 UTC

Location: N 38°28' E 023°36'.
View on Google Maps.

See reports from other nearby stations

  
Tides and Currents Weather Stations Pressure Air Temp Water Temp Dewpoint Dewpoint Depression Visibility Wind Speed Wind Dir Waves Ship Positions
date/time (UTC)wind fromknots sea level pressurealtimeterstation pressurevisibilityair tempwater tempwave heightnotes
2019-Dec-15 21:03 240 0 gusting 4 12.2
2019-Dec-15 20:58 231 1 gusting 4 12.2
2019-Dec-15 20:53 221 12.2
2019-Dec-15 20:48 109 12.2
2019-Dec-15 20:43 098 12.2
2019-Dec-15 20:38 039 12.2
2019-Dec-15 20:33 355 12.8
2019-Dec-15 20:28 345 12.8
2019-Dec-15 20:23 210 12.8
2019-Dec-15 20:18 113 0 gusting 1 12.8
2019-Dec-15 20:13 175 0 gusting 1 12.8
2019-Dec-15 20:08 217 0 gusting 4 12.8
2019-Dec-15 20:03 131 1 gusting 1 12.8
2019-Dec-15 19:58 144 12.8
2019-Dec-15 19:53 219 0 gusting 4 12.8
2019-Dec-15 19:48 143 2 gusting 4 12.8
2019-Dec-15 19:43 112 0 gusting 4 12.8
2019-Dec-15 19:38 184 0 gusting 1 12.8
2019-Dec-15 19:33 217 12.8
2019-Dec-15 19:28 198 12.8
2019-Dec-15 19:23 191 0 gusting 1 12.8
2019-Dec-15 19:18 142 1 gusting 6 12.8
2019-Dec-15 19:13 171 2 gusting 4 12.8
2019-Dec-15 19:08 166 1 gusting 4 13.3
2019-Dec-15 19:03 181 2 gusting 4 13.3
2019-Dec-15 18:58 158 1 gusting 4 13.3
2019-Dec-15 18:53 172 1 gusting 4 13.3
2019-Dec-15 18:48 219 1 gusting 4 13.3
2019-Dec-15 18:43 246 13.3
2019-Dec-15 18:38 233 0 gusting 1 13.3
2019-Dec-15 18:33 211 0 gusting 1 13.3
2019-Dec-15 18:28 174 1 gusting 1 13.9
2019-Dec-15 18:23 215 13.9
2019-Dec-15 18:18 194 1 gusting 4 13.9
2019-Dec-15 18:13 156 2 gusting 4 13.9
2019-Dec-15 18:08 143 2 gusting 4 13.9
2019-Dec-15 18:03 221 13.9
2019-Dec-15 17:58 148 1 gusting 4 14.4
2019-Dec-15 17:53 132 1 gusting 1 14.4
2019-Dec-15 17:48 271 14.4
2019-Dec-15 17:43 248 0 gusting 1 14.4
2019-Dec-15 17:38 224 0 gusting 1 14.4
2019-Dec-15 17:33 216 1 gusting 4 14.4
2019-Dec-15 17:28 201 0 gusting 4 14.4
2019-Dec-15 17:23 167 1 gusting 4 14.4
2019-Dec-15 17:18 209 14.4
2019-Dec-15 17:13 151 1 gusting 4 14.4
2019-Dec-15 17:08 147 14.4
2019-Dec-15 17:03 098 14.4
2019-Dec-15 16:58 141 15.0
2019-Dec-15 16:53 221 0 gusting 1 15.0
2019-Dec-15 16:48 209 15.0
2019-Dec-15 16:43 154 15.0
2019-Dec-15 16:38 161 2 gusting 4 15.0
2019-Dec-15 16:33 219 0 gusting 4 15.0
2019-Dec-15 16:28 270 15.6
2019-Dec-15 16:23 259 0 gusting 1 15.6
2019-Dec-15 16:18 234 1 gusting 4 15.6
2019-Dec-15 16:13 214 1 gusting 4 15.6
2019-Dec-15 16:08 207 0 gusting 1 15.6
2019-Dec-15 16:03 206 1 gusting 4 15.6
2019-Dec-15 15:58 261 15.6
2019-Dec-15 15:53 265 0 gusting 1 15.6
2019-Dec-15 15:48 239 15.6
2019-Dec-15 15:43 234 0 gusting 1 15.6
2019-Dec-15 15:38 357 0 gusting 1 15.6
2019-Dec-15 15:33 152 0 gusting 1 15.6
2019-Dec-15 15:28 215 0 gusting 4 16.1
2019-Dec-15 15:23 198 0 gusting 1 16.1
2019-Dec-15 15:18 206 16.1
2019-Dec-15 15:13 219 0 gusting 1 16.7
2019-Dec-15 15:08 156 1 gusting 4 16.7
2019-Dec-15 15:03 171 1 gusting 1 17.2
2019-Dec-15 14:58 218 0 gusting 1 17.2
2019-Dec-15 14:53 283 0 gusting 1 17.8
2019-Dec-15 14:48 285 0 gusting 1 17.8
2019-Dec-15 14:43 321 17.8
2019-Dec-15 14:38 331 17.8
2019-Dec-15 14:33 314 17.8
2019-Dec-15 14:28 321 17.8
2019-Dec-15 14:23 323 17.8
2019-Dec-15 14:18 317 0 gusting 1 17.8
2019-Dec-15 14:13 338 0 gusting 1 17.8
2019-Dec-15 14:08 344 17.8
2019-Dec-15 14:03 329 17.8
2019-Dec-15 13:58 317 0 gusting 4 17.2
2019-Dec-15 13:53 304 0 gusting 4 17.2
2019-Dec-15 13:48 294 1 gusting 4 17.2
2019-Dec-15 13:43 286 1 gusting 4 17.2
2019-Dec-15 13:38 296 2 gusting 4 17.2
2019-Dec-15 13:33 323 1 gusting 4 17.8
2019-Dec-15 13:28 329 1 gusting 4 17.8
2019-Dec-15 13:23 320 1 gusting 4 17.8
2019-Dec-15 13:18 321 17.8
2019-Dec-15 13:13 317 17.8
2019-Dec-15 13:08 028 17.8
2019-Dec-15 13:03 319 17.8
2019-Dec-15 12:58 012 17.8
2019-Dec-15 12:53 049 0 gusting 4 17.8
2019-Dec-15 12:48 335 17.8
2019-Dec-15 12:43 043 3 gusting 8 17.8
2019-Dec-15 12:38 263 0 gusting 6 17.8
2019-Dec-15 12:33 355 1 gusting 11 17.8
2019-Dec-15 12:28 022 4 gusting 8 17.8
2019-Dec-15 12:23 001 8 gusting 14 17.8
2019-Dec-15 12:18 061 6 gusting 14 17.8
2019-Dec-15 12:13 323 6 gusting 13 17.8
2019-Dec-15 12:08 182 2 gusting 8 17.8
2019-Dec-15 12:03 046 6 gusting 11 17.8
2019-Dec-15 11:58 346 4 gusting 11 17.8
2019-Dec-15 11:53 097 2 gusting 11 17.8
2019-Dec-15 11:48 005 5 gusting 11 18.3
2019-Dec-15 11:43 289 0 gusting 4 18.3
2019-Dec-15 11:38 296 0 gusting 11 18.3
2019-Dec-15 11:33 279 1 gusting 6 17.8
2019-Dec-15 11:28 067 2 gusting 6 17.8
2019-Dec-15 11:23 329 3 gusting 8 17.8
2019-Dec-15 11:18 231 1 gusting 6 17.2
2019-Dec-15 11:13 001 4 gusting 8 17.2
2019-Dec-15 11:08 289 2 gusting 11 17.2
2019-Dec-15 11:03 183 0 gusting 6 16.7
2019-Dec-15 10:58 313 1 gusting 6 16.7
2019-Dec-15 10:53 080 2 gusting 6 16.7
2019-Dec-15 10:48 107 3 gusting 6 16.7
2019-Dec-15 10:43 190 4 gusting 18 16.7
2019-Dec-15 10:38 048 6 gusting 13 16.7
2019-Dec-15 10:33 068 2 gusting 4 16.7
2019-Dec-15 10:28 304 2 gusting 8 16.7
2019-Dec-15 10:23 056 4 gusting 14 16.7
2019-Dec-15 10:18 005 5 gusting 14 16.7
2019-Dec-15 10:13 023 5 gusting 18 16.7
2019-Dec-15 10:08 321 5 gusting 13 16.7
2019-Dec-15 10:03 334 13 gusting 19 16.7
2019-Dec-15 09:58 311 7 gusting 18 16.7
2019-Dec-15 09:53 350 10 gusting 13 16.7
2019-Dec-15 09:48 210 8 gusting 21 16.7
2019-Dec-15 09:43 339 6 gusting 14 16.7
2019-Dec-15 09:38 065 6 gusting 13 16.7
2019-Dec-15 09:33 345 7 gusting 18 16.7
2019-Dec-15 09:28 316 11 gusting 21 16.7
2019-Dec-15 09:23 003 8 gusting 19 16.7
2019-Dec-15 09:18 347 5 gusting 14 16.7
2019-Dec-15 09:13 024 7 gusting 19 16.7
2019-Dec-15 09:08 010 9 gusting 18 16.7
2019-Dec-15 09:03 343 5 gusting 14 16.7
2019-Dec-15 08:58 037 6 gusting 14 16.7
2019-Dec-15 08:53 056 6 gusting 13 16.7
2019-Dec-15 08:48 024 7 gusting 18 16.7
2019-Dec-15 08:43 067 11 gusting 19 16.7
2019-Dec-15 08:38 16.7
2019-Dec-15 08:33 351 11 gusting 19 16.7
2019-Dec-15 08:28 330 7 gusting 19 16.7
2019-Dec-15 08:23 306 6 gusting 19 16.7
2019-Dec-15 08:18 341 13 gusting 19 16.7
2019-Dec-15 08:13 335 6 gusting 18 16.7
2019-Dec-15 08:08 025 5 gusting 14 16.7
2019-Dec-15 08:03 292 6 gusting 19 16.1
2019-Dec-15 07:58 012 5 gusting 13 16.1
2019-Dec-15 07:53 335 8 gusting 21 16.1
2019-Dec-15 07:48 329 4 gusting 8 16.1
2019-Dec-15 07:43 354 5 gusting 19 16.1
2019-Dec-15 07:38 301 8 gusting 14 16.1
2019-Dec-15 07:33 015 6 gusting 14 16.1
2019-Dec-15 07:28 072 6 gusting 13 16.1
2019-Dec-15 07:23 295 6 gusting 14 16.1
2019-Dec-15 07:18 069 6 gusting 19 16.1
2019-Dec-15 07:13 277 5 gusting 13 16.1
2019-Dec-15 07:08 352 6 gusting 18 16.1
2019-Dec-15 07:03 334 7 gusting 18 16.1
2019-Dec-15 06:58 337 5 gusting 11 16.1
2019-Dec-15 06:53 281 4 gusting 11 16.1
2019-Dec-15 06:48 336 4 gusting 14 16.1
2019-Dec-15 06:43 284 6 gusting 18 16.1
2019-Dec-15 06:38 042 7 gusting 14 16.1
2019-Dec-15 06:33 003 6 gusting 13 15.6
2019-Dec-15 06:28 342 7 gusting 14 15.6
2019-Dec-15 06:23 321 6 gusting 14 15.6
2019-Dec-15 06:18 304 6 gusting 11 15.6
2019-Dec-15 06:13 338 8 gusting 14 15.0
2019-Dec-15 06:08 352 5 gusting 14 15.0
2019-Dec-15 06:03 318 6 gusting 11 15.0
2019-Dec-15 05:58 345 8 gusting 13 14.4
2019-Dec-15 05:53 305 5 gusting 8 14.4
2019-Dec-15 05:48 304 5 gusting 6 14.4
2019-Dec-15 05:43 312 4 gusting 8 14.4
2019-Dec-15 05:38 311 4 gusting 8 14.4
2019-Dec-15 05:33 343 6 gusting 11 14.4
2019-Dec-15 05:28 283 6 gusting 11 14.4
2019-Dec-15 05:23 313 5 gusting 11 14.4
2019-Dec-15 05:18 082 0 gusting 4 14.4
2019-Dec-15 05:13 333 3 gusting 8 14.4
2019-Dec-15 05:08 327 7 gusting 13 14.4
2019-Dec-15 05:03 330 5 gusting 13 14.4
2019-Dec-15 04:58 314 7 gusting 14 14.4
2019-Dec-15 04:53 297 6 gusting 13 14.4
2019-Dec-15 04:48 292 5 gusting 11 14.4
2019-Dec-15 04:43 307 6 gusting 13 14.4
2019-Dec-15 04:38 292 7 gusting 11 14.4
2019-Dec-15 04:33 305 9 gusting 14 14.4
2019-Dec-15 04:28 284 8 gusting 14 14.4
2019-Dec-15 04:23 267 10 gusting 14 14.4
2019-Dec-15 04:18 281 8 gusting 13 14.4
2019-Dec-15 04:13 278 9 gusting 14 14.4
2019-Dec-15 04:08 284 11 gusting 14 15.0
2019-Dec-15 04:03 282 10 gusting 18 15.0
2019-Dec-15 03:58 292 10 gusting 18 15.0
2019-Dec-15 03:53 296 11 gusting 18 15.0
2019-Dec-15 03:48 302 9 gusting 18 15.0
2019-Dec-15 03:43 315 9 gusting 18 15.0
2019-Dec-15 03:38 299 7 gusting 18 15.0
2019-Dec-15 03:33 298 9 gusting 18 15.0
2019-Dec-15 03:28 309 7 gusting 13 15.0
2019-Dec-15 03:23 290 6 gusting 13 15.0
2019-Dec-15 03:18 318 8 gusting 18 15.0
2019-Dec-15 03:13 340 8 gusting 13 15.0
2019-Dec-15 03:08 15.0
2019-Dec-15 03:03 299 7 gusting 14 15.0
2019-Dec-15 02:58 304 6 gusting 13 15.0
2019-Dec-15 02:53 305 8 gusting 13 14.4
2019-Dec-15 02:48 022 6 gusting 14 14.4
2019-Dec-15 02:43 314 7 gusting 13 14.4
2019-Dec-15 02:38 294 7 gusting 14 14.4
2019-Dec-15 02:33 281 10 gusting 18 14.4
2019-Dec-15 02:28 316 8 gusting 14 14.4
2019-Dec-15 02:23 289 9 gusting 18 14.4
2019-Dec-15 02:18 281 8 gusting 14 14.4
2019-Dec-15 02:13 308 10 gusting 14 14.4
2019-Dec-15 02:08 306 10 gusting 21 14.4
2019-Dec-15 02:03 318 13 gusting 21 14.4
2019-Dec-15 01:58 293 12 gusting 19 14.4
2019-Dec-15 01:53 309 13 gusting 21 14.4
2019-Dec-15 01:48 311 12 gusting 19 14.4
2019-Dec-15 01:43 303 14 gusting 21 14.4
2019-Dec-15 01:38 285 10 gusting 19 14.4
2019-Dec-15 01:33 279 13 gusting 21 14.4
2019-Dec-15 01:28 296 10 gusting 19 14.4
2019-Dec-15 01:23 288 12 gusting 21 14.4
2019-Dec-15 01:18 312 14 gusting 19 14.4
2019-Dec-15 01:13 292 10 gusting 19 14.4
2019-Dec-15 01:08 313 7 gusting 14 14.4
2019-Dec-15 01:03 283 12 gusting 19 13.9
2019-Dec-15 00:58 278 10 gusting 21 13.9
2019-Dec-15 00:53 305 11 gusting 21 13.9
2019-Dec-15 00:48 288 10 gusting 18 13.9
2019-Dec-15 00:43 277 11 gusting 14 13.9
2019-Dec-15 00:38 287 11 gusting 19 13.9
2019-Dec-15 00:33 282 14 gusting 21 13.9
2019-Dec-15 00:28 276 11 gusting 18 13.9
2019-Dec-15 00:23 275 11 gusting 14 13.9
2019-Dec-15 00:18 285 12 gusting 19 13.9
2019-Dec-15 00:13 274 12 gusting 19 13.9
2019-Dec-15 00:08 293 10 gusting 18 13.9
2019-Dec-15 00:03 276 11 gusting 18 13.9
2019-Dec-14 23:58 274 12 gusting 19 13.9
2019-Dec-14 23:53 269 12 gusting 19 13.9
2019-Dec-14 23:48 286 13 gusting 19 13.9
2019-Dec-14 23:43 289 12 gusting 18 13.9
2019-Dec-14 23:38 286 12 gusting 21 13.9
2019-Dec-14 23:33 304 11 gusting 19 13.9
2019-Dec-14 23:28 310 8 gusting 14 13.9
2019-Dec-14 23:23 313 12 gusting 18 13.9
2019-Dec-14 23:18 282 10 gusting 19 13.9
2019-Dec-14 23:13 285 14 gusting 19 13.9
2019-Dec-14 23:08 289 9 gusting 18 13.9
2019-Dec-14 23:03 314 13 gusting 19 13.9
2019-Dec-14 22:58 285 10 gusting 18 13.9
2019-Dec-14 22:53 310 10 gusting 13 13.9
2019-Dec-14 22:48 295 10 gusting 14 13.9
2019-Dec-14 22:43 309 12 gusting 19 14.4
2019-Dec-14 22:38 294 13 gusting 21 14.4
2019-Dec-14 22:33 327 13 gusting 19 14.4
2019-Dec-14 22:28 311 10 gusting 19 14.4
2019-Dec-14 22:23 317 13 gusting 19 14.4
2019-Dec-14 22:18 320 12 gusting 21 14.4
2019-Dec-14 22:13 325 13 gusting 26 14.4
2019-Dec-14 22:08 287 13 gusting 24 14.4
2019-Dec-14 22:03 319 13 gusting 24 14.4
2019-Dec-14 21:58 306 12 gusting 24 14.4
2019-Dec-14 21:53 309 12 gusting 24 14.4
2019-Dec-14 21:48 304 13 gusting 24 13.9
2019-Dec-14 21:43 299 9 gusting 21 13.9
2019-Dec-14 21:38 317 10 gusting 19 13.9
2019-Dec-14 21:33 316 10 gusting 21 13.9
2019-Dec-14 21:28 279 12 gusting 24 13.9
2019-Dec-14 21:23 304 11 gusting 19 13.9
2019-Dec-14 21:18 334 11 gusting 19 13.9
2019-Dec-14 21:03 319 10 gusting 21 13.9
2019-Dec-14 20:58 292 14 gusting 21 13.9
2019-Dec-14 20:53 300 14 gusting 19 13.9
2019-Dec-14 20:48 293 11 gusting 21 13.9
2019-Dec-14 20:43 302 13 gusting 21 13.9
2019-Dec-14 20:38 284 12 gusting 21 13.9
2019-Dec-14 20:33 293 12 gusting 18 13.9
2019-Dec-14 20:28 289 12 gusting 21 13.9
2019-Dec-14 20:23 272 12 gusting 19 13.9
2019-Dec-14 20:18 287 11 gusting 18 13.9
2019-Dec-14 20:13 281 8 gusting 13 13.9
2019-Dec-14 20:08 288 8 gusting 13 13.3
2019-Dec-14 20:03 314 7 gusting 13 13.3
2019-Dec-14 19:58 299 8 gusting 14 13.3
2019-Dec-14 19:53 284 7 gusting 13 13.3
2019-Dec-14 19:48 280 6 gusting 13 13.3
2019-Dec-14 19:43 306 7 gusting 13 13.3
2019-Dec-14 19:38 311 7 gusting 14 13.3
2019-Dec-14 19:33 290 8 gusting 13 13.3
2019-Dec-14 19:28 286 8 gusting 13 13.3
2019-Dec-14 19:23 285 9 gusting 13 13.3
2019-Dec-14 19:18 274 8 gusting 13 13.3
2019-Dec-14 19:13 284 8 gusting 13 13.3
2019-Dec-14 19:08 285 6 gusting 11 13.3
2019-Dec-14 19:03 298 6 gusting 13 13.3
2019-Dec-14 18:58 286 6 gusting 13 13.3
2019-Dec-14 18:53 302 7 gusting 13 13.3
2019-Dec-14 18:48 312 6 gusting 14 13.3
2019-Dec-14 18:43 306 7 gusting 13 13.3
2019-Dec-14 18:38 279 7 gusting 11 13.3
2019-Dec-14 18:33 311 6 gusting 13 13.3
2019-Dec-14 18:28 281 8 gusting 13 13.3
2019-Dec-14 18:23 289 8 gusting 14 13.3
2019-Dec-14 18:18 293 6 gusting 14 13.3
2019-Dec-14 18:13 304 9 gusting 14 13.3
2019-Dec-14 18:08 296 10 gusting 19 13.3
2019-Dec-14 18:03 291 10 gusting 18 13.3
2019-Dec-14 17:58 295 9 gusting 14 13.3
2019-Dec-14 17:53 293 7 gusting 14 13.3
2019-Dec-14 17:48 310 9 gusting 14 13.3
2019-Dec-14 17:43 319 10 gusting 19 13.3
2019-Dec-14 17:38 349 10 gusting 18 13.3
2019-Dec-14 17:33 298 13 gusting 21 13.3
2019-Dec-14 17:28 305 11 gusting 19 13.3
2019-Dec-14 17:23 325 11 gusting 18 13.3
2019-Dec-14 17:18 346 8 gusting 19 13.3
2019-Dec-14 17:13 297 14 gusting 24 13.3
2019-Dec-14 17:08 282 12 gusting 18 13.3
2019-Dec-14 17:03 323 10 gusting 18 12.8
2019-Dec-14 16:58 290 9 gusting 14 12.8
2019-Dec-14 16:53 314 8 gusting 18 12.8
2019-Dec-14 16:48 309 8 gusting 14 12.8
2019-Dec-14 16:43 291 8 gusting 18 12.8
2019-Dec-14 16:38 295 11 gusting 19 12.8
2019-Dec-14 16:33 286 11 gusting 18 12.8
2019-Dec-14 16:28 291 10 gusting 18 12.8
2019-Dec-14 16:23 277 10 gusting 18 12.8
2019-Dec-14 16:18 280 10 gusting 19 12.8
2019-Dec-14 16:13 308 9 gusting 18 12.8
2019-Dec-14 16:08 297 12 gusting 21 12.8
2019-Dec-14 16:03 303 12 gusting 21 12.8
2019-Dec-14 15:58 291 10 gusting 19 12.8
2019-Dec-14 15:53 275 12 gusting 21 12.8
2019-Dec-14 15:48 303 7 gusting 18 12.8
2019-Dec-14 15:43 297 13 gusting 18 12.8
2019-Dec-14 15:38 291 13 gusting 21 12.8
2019-Dec-14 15:33 304 12 gusting 19 12.8
2019-Dec-14 15:28 280 13 gusting 21 12.8
2019-Dec-14 15:23 309 12 gusting 19 12.8
2019-Dec-14 15:18 307 11 gusting 18 12.8
2019-Dec-14 15:13 287 12 gusting 19 12.8
2019-Dec-14 15:08 279 12 gusting 21 12.8
2019-Dec-14 15:03 288 15 gusting 24 12.8
2019-Dec-14 14:58 305 10 gusting 19 12.8
2019-Dec-14 14:53 289 13 gusting 24 12.8
2019-Dec-14 14:48 292 12 gusting 21 12.8
2019-Dec-14 14:43 295 13 gusting 19 12.8
2019-Dec-14 14:38 291 11 gusting 18 12.8
2019-Dec-14 14:33 296 10 gusting 19 12.8
2019-Dec-14 14:28 298 10 gusting 18 12.8
2019-Dec-14 14:23 319 7 gusting 18 12.8
2019-Dec-14 14:18 299 12 gusting 19 12.8
2019-Dec-14 14:13 289 12 gusting 19 12.8
2019-Dec-14 14:08 306 6 gusting 18 12.8
2019-Dec-14 14:03 305 8 gusting 13 12.8
2019-Dec-14 13:58 311 6 gusting 11 13.3
2019-Dec-14 13:53 313 5 gusting 8 13.3
2019-Dec-14 13:48 344 6 gusting 11 13.3
2019-Dec-14 13:43 316 6 gusting 13 12.8
2019-Dec-14 13:38 303 2 gusting 6 12.8
2019-Dec-14 13:33 262 12.8
2019-Dec-14 13:28 162 0 gusting 4 12.8
2019-Dec-14 13:23 179 2 gusting 4 12.8
2019-Dec-14 13:18 164 0 gusting 4 12.8
2019-Dec-14 13:13 169 2 gusting 4 12.8
2019-Dec-14 13:08 162 2 gusting 4 12.8
2019-Dec-14 13:03 171 1 gusting 6 12.8
2019-Dec-14 12:58 164 2 gusting 4 12.8
2019-Dec-14 12:53 139 2 gusting 6 12.8
2019-Dec-14 12:48 140 4 gusting 6 12.8
2019-Dec-14 12:43 148 3 gusting 6 12.8
2019-Dec-14 12:38 149 5 gusting 8 12.8
2019-Dec-14 12:33 156 2 gusting 4 13.3
2019-Dec-14 12:28 156 1 gusting 4 13.3
2019-Dec-14 12:23 179 1 gusting 4 13.3
2019-Dec-14 12:18 168 2 gusting 4 13.3
2019-Dec-14 12:13 144 13.3
2019-Dec-14 12:08 155 2 gusting 4 13.3
2019-Dec-14 12:03 162 1 gusting 6 13.3
2019-Dec-14 11:58 167 4 gusting 6 13.9
2019-Dec-14 11:53 180 2 gusting 6 13.9
2019-Dec-14 11:48 167 2 gusting 6 13.9
2019-Dec-14 11:43 189 0 gusting 4 13.9
2019-Dec-14 11:38 163 0 gusting 4 13.9
2019-Dec-14 11:33 190 0 gusting 4 13.9
2019-Dec-14 11:28 217 0 gusting 1 13.9
2019-Dec-14 11:23 223 0 gusting 1 13.9
2019-Dec-14 11:18 232 0 gusting 4 13.9
2019-Dec-14 11:13 240 0 gusting 1 13.9
2019-Dec-14 11:08 279 13.9
2019-Dec-14 11:03 235 0 gusting 1 13.9
2019-Dec-14 10:58 226 13.3
2019-Dec-14 10:53 190 0 gusting 4 13.3
2019-Dec-14 10:48 174 2 gusting 6 13.3
2019-Dec-14 10:43 141 2 gusting 6 13.3
2019-Dec-14 10:38 162 0 gusting 4 13.3
2019-Dec-14 10:33 128 13.3
2019-Dec-14 10:28 136 0 gusting 1 13.3
2019-Dec-14 10:23 112 0 gusting 1 13.3
2019-Dec-14 10:18 094 0 gusting 4 13.3
2019-Dec-14 10:13 120 1 gusting 4 13.3
2019-Dec-14 10:08 174 3 gusting 8 13.3
2019-Dec-14 10:03 084 5 gusting 8 13.9
2019-Dec-14 09:58 113 6 gusting 13 13.9
2019-Dec-14 09:53 108 7 gusting 13 13.9
2019-Dec-14 09:48 109 6 gusting 14 14.4
2019-Dec-14 09:43 109 6 gusting 13 14.4
2019-Dec-14 09:38 104 10 gusting 14 15.0
2019-Dec-14 09:33 141 5 gusting 13 15.0
2019-Dec-14 09:28 128 8 gusting 18 15.0
2019-Dec-14 09:23 131 9 gusting 18 15.6
2019-Dec-14 09:18 133 10 gusting 18 15.6
2019-Dec-14 09:03 140 6 gusting 11 15.6
2019-Dec-14 08:53 120 6 gusting 11 15.6
2019-Dec-14 08:48 148 7 gusting 13 15.6
2019-Dec-14 08:43 147 4 gusting 8 15.6
2019-Dec-14 08:38 130 5 gusting 13 15.6
2019-Dec-14 08:33 168 6 gusting 13 15.6
2019-Dec-14 08:28 154 7 gusting 14 15.6
2019-Dec-14 08:23 135 11 gusting 18 15.6
2019-Dec-14 08:18 145 6 gusting 14 15.6
2019-Dec-14 08:13 107 7 gusting 14 15.6
2019-Dec-14 08:08 132 8 gusting 14 15.6
2019-Dec-14 08:03 155 8 gusting 13 15.6
2019-Dec-14 07:58 137 6 gusting 13 16.1
2019-Dec-14 07:53 156 6 gusting 11 16.1
2019-Dec-14 07:48 135 6 gusting 14 16.1
2019-Dec-14 07:43 156 2 gusting 8 16.1
2019-Dec-14 07:38 153 7 gusting 11 16.1
2019-Dec-14 07:33 163 6 gusting 18 16.1
2019-Dec-14 07:28 153 10 gusting 18 16.1
2019-Dec-14 07:23 155 8 gusting 14 16.1
2019-Dec-14 07:18 138 10 gusting 18 16.1
2019-Dec-14 07:13 132 6 gusting 13 16.1
2019-Dec-14 07:08 143 7 gusting 19 16.1
2019-Dec-14 07:03 140 8 gusting 14 16.1
2019-Dec-14 06:58 133 6 gusting 13 16.1
2019-Dec-14 06:53 149 6 gusting 11 16.1
2019-Dec-14 06:48 161 6 gusting 11 16.1
2019-Dec-14 06:43 164 4 gusting 11 13.3
2019-Dec-14 06:38 152 4 gusting 4 11.7
2019-Dec-14 06:33 152 4 gusting 4 11.7
2019-Dec-14 06:28 152 4 gusting 4 11.7
2019-Dec-14 06:23 152 4 gusting 4 11.7
2019-Dec-14 06:18 152 4 gusting 4 11.7
2019-Dec-14 06:13 152 4 gusting 4 11.7
2019-Dec-14 06:08 152 4 gusting 4 11.7
2019-Dec-14 06:03 152 4 gusting 4 11.7
2019-Dec-14 05:58 152 4 gusting 4 11.7
2019-Dec-14 05:53 152 4 gusting 4 11.7
2019-Dec-14 05:48 152 4 gusting 4 11.7
2019-Dec-14 05:43 152 4 gusting 4 11.7
2019-Dec-14 05:38 152 4 gusting 4 11.7
2019-Dec-14 05:33 152 4 gusting 4 11.7
2019-Dec-14 05:28 152 4 gusting 4 11.7
2019-Dec-14 05:23 152 4 gusting 4 11.7
2019-Dec-14 05:18 152 4 gusting 4 11.7
2019-Dec-14 05:13 152 4 gusting 4 11.7
2019-Dec-14 05:08 152 4 gusting 4 11.7
2019-Dec-14 05:03 152 4 gusting 4 11.7
2019-Dec-14 04:58 152 4 gusting 4 11.7
2019-Dec-14 04:53 152 4 gusting 4 11.7
2019-Dec-14 04:48 152 4 gusting 4 11.7
2019-Dec-14 04:43 152 4 gusting 4 11.7
2019-Dec-14 04:38 152 4 gusting 4 11.7
2019-Dec-14 04:33 152 4 gusting 4 11.7
2019-Dec-14 04:28 152 4 gusting 4 11.7
2019-Dec-14 04:23 152 4 gusting 4 11.7
2019-Dec-14 04:18 152 4 gusting 4 11.7
2019-Dec-14 04:13 152 4 gusting 4 11.7
2019-Dec-14 04:08 152 4 gusting 4 11.7
2019-Dec-14 04:03 152 4 gusting 4 11.7
2019-Dec-14 03:58 152 4 gusting 4 11.7
2019-Dec-14 03:53 152 4 gusting 4 11.7
2019-Dec-14 03:48 152 4 gusting 4 11.7
2019-Dec-14 03:43 152 4 gusting 4 11.7
2019-Dec-14 03:38 152 4 gusting 4 11.7
2019-Dec-14 03:33 152 4 gusting 4 11.7
2019-Dec-14 03:28 152 4 gusting 4 11.7
2019-Dec-14 03:23 152 4 gusting 4 11.7
2019-Dec-14 03:18 152 4 gusting 4 11.7
2019-Dec-14 03:13 152 4 gusting 4 11.7
2019-Dec-14 03:08 152 4 gusting 4 11.7
2019-Dec-14 03:03 152 4 gusting 4 11.7
2019-Dec-14 02:58 152 4 gusting 4 11.7
2019-Dec-14 02:53 152 4 gusting 4 11.7
2019-Dec-14 02:48 152 4 gusting 4 11.7
2019-Dec-14 02:43 152 4 gusting 4 11.7
2019-Dec-14 02:38 152 4 gusting 4 11.7
2019-Dec-14 02:33 152 4 gusting 4 11.7
2019-Dec-14 02:28 152 4 gusting 4 11.7
2019-Dec-14 02:23 152 4 gusting 4 11.7
2019-Dec-14 02:18 152 4 gusting 4 11.7
2019-Dec-14 02:13 152 4 gusting 4 11.7
2019-Dec-14 02:08 152 4 gusting 4 11.7
2019-Dec-14 02:03 152 4 gusting 4 11.7
2019-Dec-14 01:58 152 4 gusting 4 11.7
2019-Dec-14 01:53 152 4 gusting 4 11.7
2019-Dec-14 01:48 152 4 gusting 4 11.7
2019-Dec-14 01:43 152 4 gusting 4 11.7
2019-Dec-14 01:38 152 4 gusting 4 11.7
2019-Dec-14 01:33 152 4 gusting 4 11.7
2019-Dec-14 01:28 152 4 gusting 4 11.7
2019-Dec-14 01:23 152 4 gusting 4 11.7
2019-Dec-14 01:18 152 4 gusting 4 11.7
2019-Dec-14 01:13 152 4 gusting 4 11.7
2019-Dec-14 01:08 152 4 gusting 4 11.7
2019-Dec-14 01:03 152 4 gusting 4 11.7
2019-Dec-14 00:58 152 4 gusting 4 11.7
2019-Dec-14 00:53 152 4 gusting 4 11.7
2019-Dec-14 00:48 152 4 gusting 4 11.7
2019-Dec-14 00:43 152 4 gusting 4 11.7
2019-Dec-14 00:38 152 4 gusting 4 11.7
2019-Dec-14 00:33 152 4 gusting 4 11.7
2019-Dec-14 00:28 152 4 gusting 4 11.7
2019-Dec-14 00:23 152 4 gusting 4 11.7
2019-Dec-14 00:18 152 4 gusting 4 11.7
2019-Dec-14 00:13 152 4 gusting 4 11.7
2019-Dec-14 00:08 152 4 gusting 4 11.7
2019-Dec-14 00:03 152 4 gusting 4 11.7
2019-Dec-13 23:58 152 4 gusting 4 11.7
2019-Dec-13 23:53 156 5 gusting 8 11.7
2019-Dec-13 23:48 146 4 gusting 11 11.7
2019-Dec-13 23:43 151 6 gusting 8 11.7
2019-Dec-13 23:38 144 6 gusting 11 11.7
2019-Dec-13 23:33 149 4 gusting 8 11.7
2019-Dec-13 23:28 166 5 gusting 8 11.7
2019-Dec-13 23:23 160 4 gusting 8 11.7
2019-Dec-13 23:18 165 4 gusting 8 11.7
2019-Dec-13 23:13 152 5 gusting 8 11.7
2019-Dec-13 23:08 165 4 gusting 6 11.7
2019-Dec-13 23:03 150 4 gusting 6 11.7
2019-Dec-13 22:58 135 4 gusting 6 11.7
2019-Dec-13 22:53 154 4 gusting 8 11.7
2019-Dec-13 22:48 154 5 gusting 13 11.7
2019-Dec-13 22:43 152 4 gusting 6 11.7
2019-Dec-13 22:38 163 2 gusting 4 11.7
2019-Dec-13 22:33 161 1 gusting 6 11.7
2019-Dec-13 22:28 143 2 gusting 6 11.7
2019-Dec-13 22:23 138 5 gusting 8 11.7
2019-Dec-13 22:18 128 4 gusting 6 11.7
2019-Dec-13 22:13 158 4 gusting 6 11.7
2019-Dec-13 22:08 153 4 gusting 8 11.7
2019-Dec-13 22:03 158 5 gusting 8 11.7
2019-Dec-13 21:58 158 5 gusting 6 11.7
2019-Dec-13 21:53 170 5 gusting 6 11.7
2019-Dec-13 21:48 146 4 gusting 6 11.7
2019-Dec-13 21:43 142 4 gusting 8 11.7
2019-Dec-13 21:38 151 5 gusting 8 11.7
2019-Dec-13 21:33 151 5 gusting 8 11.7
2019-Dec-13 21:28 155 2 gusting 6 11.7
2019-Dec-13 21:23 152 5 gusting 6 12.2
2019-Dec-13 21:18 163 5 gusting 8 12.2
2019-Dec-13 21:13 142 6 gusting 11 12.2
2019-Dec-13 21:08 151 5 gusting 8 12.2
2019-Dec-13 21:03 138 5 gusting 11 12.2